Weather History for Ardmore, OK

Change the Weather History Date:

Tuesday, February 12, 2013

  Actual Average Record
Temperature  
Mean Temperature 40 °F -  
Max Temperature 44 °F 54 °F 73 °F (2009)
Min Temperature 35 °F 36 °F 19 °F (2006)
Degree Days  
Heating Degree Days 26    
Moisture  
Dew Point 36 °F    
Average Humidity 83    
Maximum Humidity 100    
Minimum Humidity 70    
Precipitation  
Precipitation 0.08 in - - ()
Sea Level Pressure  
Sea Level Pressure 30.03 in    
Wind  
Wind Speed 5 mph (NE)    
Max Wind Speed 13 mph    
Max Gust Speed -    
Visibility 10 miles    
Events Rain , Thunderstorm    
Averages and records for this station are not official NWS values.
T = Trace of Precipitation, MM = Missing Value Source: NWS Daily Summary

Daily Weather History Graph

Daily Weather History Graph

Search for Another Location

Airport:

Trip Planner

Search our weather history database for the weather conditions in past years. The results will help you decide how hot, cold, wet, or windy it might be!

Date:

Astronomy

Feb. 12, 2013 Rise Set
Actual Time 7:15 AM CST 6:09 PM CST
Civil Twilight 6:50 AM CST 6:34 PM CST
Nautical Twilight 6:20 AM CST 7:04 PM CST
Astronomical Twilight 5:51 AM CST 7:33 PM CST
Moon 8:23 AM CST (2/12) 9:00 PM CST (2/12)
Length of Visible Light 11h 44m
Length of Day
10h 53m
Waxing Crescent, 7% of the Moon is Illuminated
Feb 12
Waxing Crescent
Feb 17
First Quarter
Feb 25
Full
Mar 4
Last Quarter
Mar 11
New

Hourly Weather History & Observations

Time (CST) Temp. Windchill Dew Point Humidity Pressure Visibility Wind Dir Wind Speed Gust Speed Precip Events Conditions
12:15 AM 42.8 °F 41.1 °F 33.8 °F 70% 30.07 in 10.0 mi East 3.5 mph - N/A   Clear
12:35 AM 42.8 °F 41.1 °F 33.8 °F 70% 30.06 in 10.0 mi East 3.5 mph - N/A   Clear
12:55 AM 42.8 °F 39.3 °F 33.8 °F 70% 30.04 in 10.0 mi East 5.8 mph - N/A   Clear
1:15 AM 42.8 °F 39.3 °F 33.8 °F 70% 30.03 in 10.0 mi East 5.8 mph - N/A   Clear
1:35 AM 42.8 °F 41.1 °F 33.8 °F 70% 30.04 in 10.0 mi East 3.5 mph - N/A   Clear
1:55 AM 42.8 °F - 33.8 °F 70% 30.05 in 10.0 mi Calm Calm - N/A   Clear
2:15 AM 42.8 °F - 35.6 °F 76% 30.04 in 10.0 mi Calm Calm - N/A   Scattered Clouds
2:35 AM 42.8 °F 40.1 °F 35.6 °F 76% 30.05 in 10.0 mi SSE 4.6 mph - N/A   Mostly Cloudy
2:55 AM 42.8 °F 41.1 °F 37.4 °F 81% 30.03 in 10.0 mi East 3.5 mph - N/A   Mostly Cloudy
3:15 AM 42.8 °F 40.1 °F 35.6 °F 76% 30.02 in 10.0 mi NE 4.6 mph - N/A   Scattered Clouds
3:35 AM 44.6 °F - 35.6 °F 71% 30.03 in 10.0 mi Calm Calm - N/A   Clear
3:55 AM 42.8 °F - 37.4 °F 81% 30.02 in 10.0 mi Calm Calm - N/A   Clear
4:15 AM 42.8 °F 41.1 °F 37.4 °F 81% 30.01 in 10.0 mi North 3.5 mph - N/A   Light Drizzle
4:35 AM 42.8 °F 40.1 °F 37.4 °F 81% 30.02 in 10.0 mi North 4.6 mph - 0.01 in Rain Light Rain
4:55 AM 42.8 °F 39.3 °F 39.2 °F 87% 30.02 in 10.0 mi NNE 5.8 mph - 0.01 in Rain Light Rain
5:15 AM 42.8 °F 38.6 °F 39.2 °F 87% 30.03 in 10.0 mi North 6.9 mph - 0.02 in Rain , Thunderstorm Light Thunderstorms and Rain
5:35 AM 42.8 °F 37.0 °F 39.2 °F 87% 29.99 in 7.0 mi NE 10.4 mph - 0.07 in Rain Rain
10:55 AM 42.8 °F 38.6 °F 42.8 °F 100% 30.00 in 4.0 mi North 6.9 mph - N/A   Heavy Drizzle
10:35 PM 35.6 °F 28.0 °F 35.6 °F 100% 30.03 in 10.0 mi North 10.4 mph - N/A   Overcast
10:55 PM 35.6 °F 27.5 °F 35.6 °F 100% 30.03 in 10.0 mi North 11.5 mph - N/A   Overcast
11:15 PM 35.6 °F 27.5 °F 35.6 °F 100% 30.03 in 10.0 mi North 11.5 mph - N/A   Overcast
11:35 PM 35.6 °F 27.1 °F 35.6 °F 100% 30.04 in 10.0 mi North 12.7 mph - N/A   Overcast
11:55 PM 35.6 °F 27.5 °F 35.6 °F 100% 30.05 in 10.0 mi North 11.5 mph - N/A   Overcast